This is the latest recevied weather packets stored in our database for station/object VK4TW-13. If no packets are shown the sender has not sent any weather packets the latest 10 day(s).
| Time | Temp. | Humidity | Pressure | Rain* | Wind** | Luminosity | Snow |
|---|---|---|---|---|---|---|---|
| 1777684764 | 27.78° C | 100% | 1017.6 hPa | 0 mm | - | - | - |
| 1777684379 | 27.22° C | 100% | 1017.4 hPa | 0 mm | - | - | - |
| 1777684190 | 27.22° C | 100% | 1017.4 hPa | 0 mm | - | - | - |
| 1777683931 | 26.67° C | 100% | 1017.5 hPa | 0 mm | - | - | - |
| 1777683711 | 26.67° C | 100% | 1017.5 hPa | 0 mm | - | - | - |
| 1777683522 | 26.67° C | 100% | 1017.5 hPa | 0 mm | - | - | - |
| 1777683306 | 26.11° C | 100% | 1017.5 hPa | 0 mm | - | - | - |
| 1777682976 | 26.67° C | 100% | 1017.7 hPa | 0 mm | - | - | - |
| 1777682633 | 26.67° C | 100% | 1017.7 hPa | 0 mm | - | - | - |
| 1777681863 | 27.22° C | 100% | 1017.8 hPa | 0 mm | - | - | - |
| 1777681579 | 27.22° C | 100% | 1018 hPa | 0 mm | - | - | - |
| 1777680977 | 27.22° C | 100% | 1018 hPa | 0 mm | - | - | - |
| 1777680378 | 26.67° C | 100% | 1018.1 hPa | 0 mm | - | - | - |
| 1777679773 | 26.67° C | 100% | 1018.3 hPa | 0 mm | - | - | - |
| 1777679173 | 26.67° C | 100% | 1018.2 hPa | 0 mm | - | - | - |
| 1777679173 | 26.11° C | 100% | 1018.1 hPa | 0 mm | - | - | - |
| 1777678985 | 26.11° C | 100% | 1018.1 hPa | 0 mm | - | - | - |
| 1777678381 | 26.11° C | 100% | 1018.1 hPa | 0 mm | - | - | - |
| 1777677779 | 26.11° C | 100% | 1018.1 hPa | 0 mm | - | - | - |
| 1777677235 | 25.56° C | 100% | 1018.3 hPa | 0 mm | - | - | - |
| 1777677183 | 25.56° C | 100% | 1018.3 hPa | 0 mm | - | - | - |
| 1777676578 | 25° C | 100% | 1018.2 hPa | 0 mm | - | - | - |
| 1777676215 | 24.44° C | 100% | 1018.2 hPa | 0 mm | - | - | - |
| 1777675983 | 24.44° C | 100% | 1018.2 hPa | 0 mm | - | - | - |
| 1777675378 | 24.44° C | 100% | 1018.2 hPa | 0 mm | - | - | - |
* Rain since midnight (hover to see other rain measurements)
** Current wind speed in m/s (hover to see current wind gust speed)